STARLINK-2342 (47883 NORAD) Tracking and Keplerian Element Data

This shows tracking and keplerian element data for the satellite.

Feedback or suggestion? Click here.




ElementValue
Catalog47883
NameSTARLINK-2342
Epoch Orbit197
Epoch Day173.91668981
Epoch Year2021
RAAN82.0878
Inclination53.0529
Eccentricity0.0001323
Argument of Perigee60.6141
Mean Anonmoly255.0274
Mean Motion15.27388894
Decay Rate-0.01065315
L11 47883U 21021Z 21173.91668981 -.01065315 00000-0 -42773-1 0 9995
L22 47883 53.0529 82.0878 0001323 60.6141 255.0274 15.27388894 1973

Live tracking and technical data element details for STARLINK-2342 (NORAD 47883). STARLINK-2342 can be tracked NOW for your location showing map with azimuth and elevation plus other details from your city location.

Track the satellite on the map from your city or location and see movement details for azimuth, elevation, latitude, longitude, range, height, and movement on the map or in text.







IsCatalogInMostPopularTable: catalog: 47883, numindb: 45
Update: records affected: 1



GetName: 47883 STARLINK-2342

Hit Count: updated at: Thu, 24 Jun 2021 02:52:47 GMT